CAPE
0 0 0 0 0 0 0 0 0 0 0 0 0 0 0 0 0 0 0 0 0 0 0 0 0 0 1 290 497 559 244 54 10 16 33 7 307 546 543 502 510 329 133 0 0
0 0 0 0 0 0 0 0 0 0 0 0 0 0 0 0 0 0 0 0 0 0 0 0 0 0 0 62 229 442 110 135 2 6 21 8 63 190 654 619 449 311 156 0 0
0 0 0 0 0 0 0 0 0 0 0 0 0 0 0 0 0 0 0 0 0 0 0 0 0 0 0 0 18 56 52 115 19 17 31 5 5 63 457 464 457 314 190 33 0
0 0 0 0 0 0 0 0 0 0 0 0 0 1 0 0 0 0 0 0 0 0 0 0 0 0 0 0 4 16 4 23 21 5 27 2 0 71 98 637 499 330 248 200 340
0 0 0 0 0 0 0 0 0 0 0 0 1 1 0 0 0 0 0 0 0 0 0 0 0 0 0 0 0 2 0 11 101 16 14 0 8 3 486 781 496 419 386 351 377
0 0 0 0 0 0 0 0 0 0 0 0 2 0 0 0 0 0 0 0 0 0 0 0 0 0 0 0 0 0 0 7 77 48 50 2 31 10 803 741 511 342 334 326 379
0 0 0 0 0 0 0 0 0 0 0 0 1 1 0 0 0 0 0 0 0 0 0 0 0 0 0 0 0 0 0 0 90 57 21 7 30 16 171 734 657 568 475 366 435
0 0 0 0 0 0 0 0 0 0 0 0 1 3 0 0 0 0 0 0 0 0 0 0 0 0 0 0 0 0 0 0 3 36 68 99 84 26 190 587 651 689 585 545 381
0 0 0 0 0 0 0 0 0 0 0 0 0 0 0 0 0 0 0 0 0 0 0 0 0 0 0 0 0 0 0 0 0 18 66 41 145 20 81 229 366 521 712 553 531
0 0 0 0 0 0 0 0 0 0 0 0 0 0 0 0 0 0 0 0 0 0 0 0 0 0 0 0 0 0 0 0 0 1 41 42 150 53 150 18 0 260 384 423 579
0 0 0 0 0 0 0 0 0 0 0 0 0 0 0 0 0 0 0 0 0 0 0 0 0 0 0 0 0 0 0 0 0 0 0 40 148 72 94 0 2 159 91 315 266
0 0 0 0 0 0 0 0 0 0 0 0 0 0 0 0 0 0 0 0 0 0 0 0 0 0 0 0 0 0 0 0 0 0 0 8 74 151 122 105 110 232 250 106 300
0 0 0 0 0 0 0 0 0 0 0 0 0 0 0 0 0 0 0 0 0 0 0 0 0 0 0 0 0 0 0 0 0 0 0 7 87 82 70 58 39 199 0 27 164
0 0 0 0 0 0 0 0 0 0 0 0 0 0 0 0 0 0 0 0 0 0 0 0 0 0 0 0 0 0 0 0 0 0 0 0 15 83 19 95 42 88 12 21 74
0 0 0 0 0 0 0 0 0 0 0 0 0 0 0 0 0 0 0 0 0 0 0 0 0 0 0 0 0 0 0 0 0 0 0 1 0 22 128 102 51 34 60 0 139
0 0 0 0 0 0 0 0 0 0 0 0 0 0 0 0 0 0 0 0 0 0 0 0 0 0 0 0 0 0 0 0 0 0 0 0 3 0 64 115 166 28 0 4 254
0 0 0 0 0 0 0 0 0 0 0 0 0 0 0 0 0 0 0 0 0 0 0 0 0 0 0 0 0 0 0 0 0 0 0 0 0 0 17 56 103 86 55 244 405
0 0 0 0 0 0 0 0 0 0 0 0 0 0 0 0 0 0 0 0 0 0 0 0 0 0 0 0 0 0 0 0 0 0 0 0 0 0 0 2 64 140 215 483 509
0 0 0 0 0 0 0 0 0 0 0 0 0 0 0 0 0 0 0 0 0 0 0 0 0 0 0 0 0 0 0 0 0 0 0 0 0 0 0 0 0 5 53 549 520
0 0 0 0 0 0 0 0 0 0 0 0 0 0 0 0 0 0 0 0 0 0 0 0 0 0 0 0 0 0 0 0 0 0 0 0 0 0 0 0 0 0 0 48 583
0 0 0 0 0 0 0 0 0 0 0 0 0 0 0 0 3 0 0 0 0 0 0 0 0 0 0 5 0 0 0 0 0 0 0 0 0 0 0 0 0 0 0 1 509
0 0 0 0 0 0 0 0 0 0 0 0 0 35 45 0 1 0 0 2 0 0 0 0 0 0 0 0 0 0 0 0 0 0 0 0 0 0 0 0 0 0 0 2 137
0 0 0 0 0 0 0 0 0 0 0 0 0 10 24 17 12 8 6 15 3 0 1 0 0 0 0 0 0 0 0 0 0 0 0 0 0 0 0 0 0 0 0 0 38
0 0 0 0 0 0 0 0 0 0 0 3 0 3 46 14 30 14 0 0 0 0 0 6 0 0 0 0 0 0 0 0 0 0 0 0 0 0 0 0 0 0 0 0 0
0 0 1 0 0 0 0 0 0 0 16 6 0 18 31 10 1 7 3 1 0 0 0 0 0 0 0 0 0 0 0 0 0 0 0 0 0 0 0 0 0 0 0 0 0
3 1 1 0 1 0 0 0 1 1 0 1 65 20 10 13 0 0 1 0 0 0 0 0 0 0 0 0 0 0 0 0 0 0 0 0 0 0 0 0 0 0 0 10 0
0 0 0 0 1 0 0 3 9 5 4 22 58 11 8 23 22 0 0 0 0 0 0 0 0 0 0 0 0 0 0 0 0 0 0 0 0 0 0 0 0 0 0 0 0
CIN
-0 -0 -0 -0 -0 -0 -0 -0 -0 -0 -0 -0 -0 -0 -0 -0 -0 -0 -0 -0 -0 -0 -0 -0 -0 -0 -12 -65 -63 -11 -4 -27 -71 -57 -47 -59 -50 -31 -39 -103 -96 -127 -196 -0 -0
-0 -0 -0 -0 -0 -0 -0 -0 -0 -0 -0 -0 -0 -0 -0 -0 -0 -0 -0 -0 -0 -0 -0 -0 -0 -0 -0 -133 -49 -6 -11 -42 -29 -35 -97 -92 -41 -14 -33 -41 -149 -172 -160 -0 -0
-0 -0 -0 -0 -0 -0 -0 -0 -0 -0 -0 -0 -0 -0 -0 -0 -0 -0 -0 -0 -0 -0 -0 -0 -0 -0 -0 -0 -112 -35 -29 -54 -65 -47 -105 -31 -38 -79 -27 -104 -154 -225 -202 -221 -0
-0 -0 -0 -0 -0 -0 -0 -0 -0 -0 -0 -0 -0 -0 -0 -0 -0 -0 -0 -0 -0 -0 -0 -0 -0 -0 -0 -0 -98 -99 -54 -57 -77 -59 -147 -82 -0 -95 -148 -97 -205 -230 -197 -188 -92
-0 -0 -0 -0 -0 -0 -0 -0 -0 -0 -0 -0 -0 -0 -0 -0 -0 -0 -0 -0 -0 -0 -0 -0 -0 -0 -0 -0 -0 -98 -0 -21 -28 -42 -148 -0 -108 -56 -56 -124 -217 -196 -150 -115 -79
-0 -0 -0 -0 -0 -0 -0 -0 -0 -0 -0 -0 -0 -0 -0 -0 -0 -0 -0 -0 -0 -0 -0 -0 -0 -0 -0 -0 -0 -0 -0 -9 -36 -46 -112 -75 -80 -109 -40 -146 -204 -210 -181 -133 -77
-0 -0 -0 -0 -0 -0 -0 -0 -0 -0 -0 -0 -0 -0 -0 -0 -0 -0 -0 -0 -0 -0 -0 -0 -0 -0 -0 -0 -0 -0 -0 -0 -32 -66 -146 -119 -73 -68 -92 -96 -149 -136 -114 -108 -75
-0 -0 -0 -0 -0 -0 -0 -0 -0 -0 -0 -0 -0 -0 -0 -0 -0 -0 -0 -0 -0 -0 -0 -0 -0 -0 -0 -0 -0 -0 -0 -0 -9 -82 -41 -128 -54 -200 -148 -25 -82 -96 -73 -68 -82
-0 -0 -0 -0 -0 -0 -0 -0 -0 -0 -0 -0 -0 -0 -0 -0 -0 -0 -0 -0 -0 -0 -0 -0 -0 -0 -0 -0 -0 -0 -0 -0 -0 -11 -18 -104 -94 -217 -144 -111 -47 -22 -32 -57 -89
-0 -0 -0 -0 -0 -0 -0 -0 -0 -0 -0 -0 -0 -0 -0 -0 -0 -0 -0 -0 -0 -0 -0 -0 -0 -0 -0 -0 -0 -0 -0 -0 -0 -1 -10 -16 -88 -173 -161 -133 -0 -37 -15 -34 -36
-0 -0 -0 -0 -0 -0 -0 -0 -0 -0 -0 -0 -0 -0 -0 -0 -0 -0 -0 -0 -0 -0 -0 -0 -0 -0 -0 -0 -0 -0 -0 -0 -0 -0 -5 -11 -97 -200 -292 -0 -335 -155 -112 -33 -21
-0 -0 -0 -0 -0 -0 -0 -0 -0 -0 -0 -0 -0 -0 -0 -0 -0 -0 -0 -0 -0 -0 -0 -0 -0 -0 -0 -0 -0 -0 -0 -0 -0 -0 -0 -13 -52 -204 -288 -326 -301 -178 -102 -135 -44
-0 -0 -0 -0 -0 -0 -0 -0 -0 -0 -0 -0 -0 -0 -0 -0 -0 -0 -0 -0 -0 -0 -0 -0 -0 -0 -0 -0 -0 -0 -0 -0 -0 -0 -0 -3 -75 -131 -236 -228 -345 -341 -0 -106 -90
-0 -0 -0 -0 -0 -0 -0 -0 -0 -0 -0 -0 -0 -0 -0 -0 -0 -0 -0 -0 -0 -0 -0 -0 -0 -0 -0 -0 -0 -0 -0 -0 -0 -0 -0 -4 -2 -124 -228 -270 -276 -329 -237 -308 -213
-0 -0 -0 -0 -0 -0 -0 -0 -0 -0 -0 -0 -0 -0 -0 -0 -0 -0 -0 -0 -0 -0 -0 -0 -0 -0 -0 -0 -0 -0 -0 -0 -0 -0 -0 -11 -10 -39 -134 -129 -264 -302 -223 -0 -214
-0 -0 -0 -0 -0 -0 -0 -0 -0 -0 -0 -0 -0 -0 -0 -0 -0 -0 -0 -0 -0 -0 -0 -0 -0 -0 -0 -0 -0 -0 -0 -0 -0 -0 -0 -0 -6 -0 -101 -93 -156 -276 -0 -68 -256
-0 -0 -0 -0 -0 -0 -0 -0 -0 -0 -0 -0 -0 -0 -0 -0 -0 -0 -0 -0 -0 -0 -0 -0 -0 -0 -0 -0 -0 -0 -0 -0 -0 -0 -0 -0 -0 -0 -13 -68 -133 -162 -222 -241 -194
-0 -0 -0 -0 -0 -0 -0 -0 -0 -0 -0 -0 -0 -0 -0 -0 -0 -0 -0 -0 -0 -0 -0 -0 -0 -0 -0 -0 -0 -0 -0 -0 -0 -0 -0 -0 -0 -0 -0 -3 -26 -81 -66 -122 -92
-0 -0 -0 -0 -0 -0 -0 -0 -0 -0 -0 -0 -0 -0 -0 -0 -0 -0 -0 -0 -0 -0 -0 -0 -0 -0 -0 -0 -0 -0 -0 -0 -0 -0 -0 -0 -0 -0 -0 -0 -0 -37 -16 -66 -108
-0 -0 -0 -0 -0 -0 -0 -0 -0 -0 -0 -0 -0 -0 -0 -0 -0 -0 -0 -0 -0 -0 -0 -0 -0 -0 -0 -0 -0 -0 -0 -0 -0 -0 -0 -0 -0 -0 -0 -0 -0 -0 -12 -12 -77
-0 -0 -0 -0 -0 -0 -0 -0 -0 -0 -0 -0 -0 -0 -0 -0 -3 -0 -0 -0 -0 -0 -0 -0 -0 -0 -0 -3 -0 -0 -0 -0 -0 -0 -0 -0 -0 -0 -0 -0 -0 -0 -0 -14 -84
-0 -0 -0 -0 -0 -0 -0 -0 -0 -0 -0 -0 -0 -17 -24 -0 -2 -0 -0 -4 -1 -0 -0 -0 -0 -0 -0 -0 -0 -0 -0 -0 -0 -0 -0 -0 -0 -0 -0 -0 -0 -0 -0 -25 -63
-0 -0 -0 -0 -0 -0 -0 -0 -0 -0 -0 -0 -0 -37 -48 -9 -9 -33 -13 -1 -0 -0 -0 -0 -0 -0 -0 -0 -0 -0 -0 -0 -0 -0 -0 -0 -0 -0 -0 -0 -0 -0 -0 -0 -55
-0 -0 -0 -0 -0 -0 -0 -0 -0 -4 -1 -24 -11 -40 -31 -6 -18 -18 -16 -0 -0 -0 -0 -0 -0 -0 -0 -0 -0 -0 -0 -0 -0 -0 -0 -0 -0 -0 -0 -0 -0 -0 -0 -0 -0
-0 -0 -0 -0 -0 -0 -0 -0 -0 -0 -39 -1 -0 -7 -3 -8 -47 -12 -24 -1 -0 -0 -0 -0 -0 -0 -0 -0 -0 -0 -0 -0 -0 -0 -0 -0 -0 -0 -0 -0 -0 -0 -0 -0 -0
-1 -4 -0 -0 -0 -0 -0 -0 -0 -1 -0 -2 -2 -28 -32 -15 -0 -9 -9 -0 -0 -0 -0 -0 -0 -0 -0 -0 -0 -0 -0 -0 -0 -0 -0 -0 -0 -0 -0 -0 -0 -0 -0 -52 -1
-1 -1 -0 -0 -0 -0 -0 -0 -0 -0 -49 -10 -22 -16 -19 -6 -10 -0 -0 -0 -0 -0 -0 -0 -0 -0 -0 -0 -0 -0 -0 -0 -0 -0 -0 -0 -0 -0 -0 -0 -0 -0 -0 -0 -0
Wind_Speed
33 34 34 34 34 35 34 34 33 33 32 32 31 29 28 28 29 30 28 21 14 26 17 7 11 14 8 22 31 24 15 21 11 16 13 13 16 14 12 18 13 13 20 26 34
35 35 35 35 35 35 36 35 35 34 34 33 33 31 30 30 30 26 22 19 26 20 12 12 8 17 33 16 19 19 10 10 18 16 16 17 10 8 12 14 13 17 21 29 32
36 37 37 37 37 37 37 37 36 36 36 35 34 32 30 29 29 26 2 25 23 10 13 14 28 12 26 31 27 28 18 14 21 21 18 19 12 9 12 13 18 20 27 29 30
38 39 39 39 39 40 40 39 38 37 37 36 34 29 25 19 19 12 16 8 21 10 6 12 32 27 26 31 31 29 26 9 1 8 9 3 6 23 21 17 21 23 28 30 28
40 40 41 41 42 42 42 41 39 39 38 34 29 23 18 18 18 10 20 15 10 14 11 9 19 26 23 25 36 35 33 21 16 10 9 14 23 19 18 23 23 25 27 28 28
41 41 42 42 43 43 43 43 42 40 38 31 25 17 16 23 22 14 14 8 1 14 13 11 17 16 23 21 32 37 35 30 13 6 3 14 1 8 19 23 24 25 26 27 27
42 42 43 43 43 43 44 44 44 43 38 30 23 15 18 11 18 18 5 5 1 10 12 12 22 27 19 28 39 40 39 37 12 4 4 18 30 6 11 22 21 22 26 26 26
44 44 44 45 44 43 43 44 43 42 32 27 21 15 25 22 10 34 27 6 3 6 9 16 25 37 40 30 38 42 40 39 36 12 12 10 4 10 8 18 17 21 26 27 28
46 46 47 48 47 45 45 44 44 35 20 19 16 19 34 30 15 19 13 9 4 8 7 11 18 28 36 28 40 42 43 39 40 28 26 16 3 14 12 14 5 10 24 28 28
48 48 48 49 49 47 46 46 41 24 21 17 21 28 27 22 17 11 11 18 10 12 11 14 17 15 19 18 30 28 35 39 36 36 13 12 7 18 16 8 10 29 27 25 28
49 50 51 51 50 47 43 38 40 29 35 34 29 27 47 34 34 14 10 14 16 15 15 14 20 28 23 21 33 33 41 35 39 33 30 13 9 17 16 9 8 9 13 27 24
50 51 51 52 50 45 36 40 39 41 52 39 32 27 26 36 35 26 11 17 18 19 17 21 30 19 22 27 41 36 43 44 36 39 34 16 13 16 17 18 6 9 27 32 28
51 51 51 51 47 33 39 40 41 42 42 40 25 24 31 29 33 46 26 20 26 24 24 24 22 29 23 23 23 33 34 43 36 35 36 22 13 12 10 6 7 9 12 35 33
51 52 52 51 31 37 35 42 41 38 35 30 23 21 30 26 36 30 41 29 33 35 26 33 33 19 29 23 22 22 40 41 40 36 35 22 30 16 14 11 15 14 16 39 35
53 53 50 43 28 30 33 38 38 33 40 30 30 27 35 18 30 28 34 39 36 35 29 30 26 30 25 22 24 40 30 44 44 41 38 37 32 17 16 17 16 19 23 37 35
54 52 50 32 25 20 31 36 30 27 34 30 34 37 36 32 32 35 31 42 40 44 46 50 37 37 44 29 38 36 36 42 44 42 50 46 37 25 14 23 24 27 26 36 36
48 55 41 22 26 26 30 33 27 29 32 31 42 38 38 37 34 29 32 43 45 45 55 47 53 46 43 40 30 35 36 36 36 32 46 37 40 34 8 21 26 28 32 37 38
44 32 24 13 14 18 29 31 27 27 33 39 41 42 40 37 34 35 36 37 46 48 39 53 49 50 42 48 35 26 31 31 29 41 44 40 47 44 39 26 33 24 30 35 38
38 34 21 15 8 15 25 27 26 31 33 38 43 41 44 42 38 36 35 37 32 48 56 48 64 32 56 40 40 34 51 37 34 36 33 39 46 46 45 43 23 31 22 32 33
45 31 20 16 19 16 12 17 32 32 36 38 45 44 45 41 39 35 34 34 30 26 34 63 48 48 45 50 49 38 29 37 44 39 39 38 42 44 45 50 41 18 18 27 33
35 32 18 33 18 14 10 11 28 33 35 34 41 44 40 40 34 36 37 40 24 30 31 40 52 58 44 51 60 42 37 42 38 39 35 34 38 38 39 37 42 18 12 29 31
33 31 23 26 21 19 20 19 20 32 30 28 32 37 34 39 37 36 41 39 35 33 36 37 41 59 57 44 54 42 47 36 42 46 42 37 39 23 25 40 34 27 15 18 22
36 28 28 29 25 26 20 19 19 24 26 27 31 33 31 34 34 33 33 30 31 31 27 28 34 48 59 52 48 54 48 49 38 34 47 44 34 27 29 18 34 16 19 16 14
28 31 31 22 25 28 24 16 16 19 23 20 29 29 29 32 30 34 37 32 31 33 33 34 41 50 53 54 41 49 47 48 41 45 45 48 32 25 17 11 14 13 12 18 21
25 27 29 26 25 22 16 14 16 15 19 13 23 30 30 33 32 32 31 31 32 33 28 27 40 45 47 46 40 38 49 43 54 47 45 42 30 20 12 7 10 12 14 11 17
27 28 25 24 22 22 17 15 10 13 19 15 34 31 33 33 30 34 33 30 30 32 29 27 33 34 44 43 39 39 46 42 43 51 47 39 37 19 11 4 3 5 13 10 16
23 21 23 22 23 22 18 17 11 11 14 12 20 31 32 32 29 34 35 33 32 32 33 33 28 32 42 37 32 36 41 46 42 38 45 42 33 16 15 9 6 4 2 4 7
Wind_Direction
331 328 325 321 318 315 311 307 302 297 293 291 287 276 271 270 266 254 219 195 177 193 275 285 155 255 147 252 201 180 317 326 40 33 328 298 58 60 68 94 56 97 110 121 130
330 326 322 319 315 312 309 305 302 298 293 291 292 284 280 285 268 233 214 197 194 181 257 264 168 162 192 164 267 174 316 342 250 324 260 278 8 12 63 69 55 80 102 123 133
330 326 323 320 316 312 308 305 301 300 298 293 291 295 298 297 298 291 357 194 183 179 176 176 248 167 180 190 186 194 167 144 213 213 275 238 346 303 81 65 104 108 124 130 136
330 327 323 320 317 313 310 306 303 303 301 300 300 308 315 322 318 352 333 4 172 187 243 253 189 180 181 189 191 193 191 149 28 119 32 100 64 208 191 107 111 114 128 135 139
331 328 325 321 318 314 311 309 307 305 308 311 319 324 327 315 301 298 311 321 151 172 199 201 182 187 182 196 205 206 210 186 170 32 96 98 126 165 114 116 114 119 131 138 142
330 327 325 322 318 314 312 310 308 308 306 317 323 330 322 302 307 190 308 330 316 173 186 208 257 226 258 189 198 226 221 216 176 3 86 274 87 1 117 119 114 125 136 142 146
329 327 325 322 317 314 313 311 308 306 307 313 319 319 307 282 310 299 236 295 211 180 193 201 251 250 254 258 218 232 235 242 183 158 261 157 218 352 231 116 116 121 136 143 150
331 327 325 322 317 314 313 310 305 307 314 313 314 311 298 304 220 231 264 265 208 188 206 256 253 245 241 258 248 234 229 230 231 180 174 132 198 123 129 128 115 126 140 149 153
335 330 327 325 321 316 314 311 311 329 337 329 321 305 292 294 296 275 269 247 221 254 214 255 251 246 247 255 244 238 229 238 236 190 190 180 213 151 141 124 11 127 151 157 158
336 333 329 327 324 319 320 315 327 343 345 340 311 299 294 298 303 279 242 266 237 254 245 245 252 230 230 222 197 249 250 247 249 243 201 243 241 167 160 142 70 227 185 163 163
339 336 331 329 326 319 329 337 338 331 320 313 297 287 265 280 288 268 235 245 250 242 230 225 245 201 204 209 250 252 242 249 239 254 251 231 228 181 174 163 141 181 258 173 169
341 338 335 331 326 325 340 336 333 319 306 311 293 277 267 279 275 272 237 234 232 224 228 245 208 227 249 248 243 247 242 238 252 238 250 242 250 190 179 175 147 133 235 222 171
346 344 341 337 332 347 337 337 334 327 313 315 316 300 282 269 263 248 263 230 243 236 226 229 247 249 245 242 237 247 249 240 251 244 251 259 216 204 191 189 155 133 198 209 191
350 345 340 331 347 341 339 336 337 334 313 312 318 327 315 275 266 259 253 249 247 245 237 246 247 237 244 235 229 230 244 246 245 250 254 258 250 228 202 207 169 158 168 187 184
346 332 327 332 347 345 343 342 330 331 300 313 316 316 323 283 280 267 252 250 243 244 237 231 234 242 236 220 242 245 246 242 244 252 258 254 251 252 207 220 197 185 182 181 179
326 324 329 351 354 354 346 340 342 319 300 311 318 309 305 297 286 280 262 247 248 244 245 244 249 245 243 248 245 244 245 243 245 250 245 240 250 249 218 194 194 189 181 179 172
317 321 336 356 356 351 347 340 331 308 318 311 311 304 293 289 288 292 276 244 238 236 239 243 239 241 239 240 241 238 236 241 245 226 213 250 251 252 215 181 188 188 183 178 178
317 324 4 13 6 360 347 332 321 328 318 312 311 301 281 288 284 286 279 256 238 238 244 238 240 234 234 236 236 229 233 240 239 243 239 248 242 237 238 259 196 178 181 178 173
320 1 12 15 21 9 352 329 327 332 326 320 312 300 284 279 277 278 273 255 253 239 237 237 234 244 229 236 236 235 232 240 247 245 251 248 239 247 240 246 263 184 173 176 175
358 6 15 30 16 14 19 341 323 332 326 321 303 301 283 278 267 267 260 249 272 274 261 236 245 237 236 232 235 236 239 235 235 241 245 244 240 231 235 230 242 241 233 181 178
8 7 27 4 13 10 359 346 339 336 336 329 315 295 279 272 266 260 247 262 268 275 271 249 236 231 235 228 221 230 232 233 238 239 243 247 242 220 213 205 238 232 225 182 177
9 8 11 2 11 14 10 8 358 340 344 345 329 291 280 277 260 257 251 250 274 276 260 254 239 229 229 231 229 237 233 233 233 231 237 241 236 280 275 201 190 187 199 183 183
360 6 11 9 12 6 2 1 359 359 351 345 329 290 281 273 262 258 257 262 264 263 255 262 234 227 226 233 238 228 230 230 236 240 232 234 245 277 274 212 179 199 198 211 175
10 7 12 23 14 5 2 359 356 356 1 357 331 299 287 276 265 256 254 256 266 259 270 267 236 226 225 226 231 229 226 228 232 231 231 229 249 273 288 241 210 184 215 214 221
15 12 11 5 6 356 358 354 359 359 4 355 344 284 285 271 264 257 257 261 263 261 262 261 232 233 232 230 234 248 225 227 227 230 230 232 247 257 274 274 243 228 244 213 209
8 7 13 4 8 6 8 4 353 6 356 357 318 295 280 270 260 258 254 256 253 255 261 263 233 244 229 228 234 244 229 227 231 229 233 235 240 247 242 261 268 248 243 237 213
15 14 10 7 10 9 15 12 2 336 4 358 271 301 280 275 267 262 256 251 254 248 256 248 243 240 221 225 235 237 230 226 228 232 230 233 238 235 234 223 233 264 211 180 190